| time (UTC) | temp F | wind direction | speed MPH | gust MPH | rain 1hr in | rain 24hr in | rain mn in | humidity % | barometer mb |
| 20260831043021 | 65 | 180 | 1.0 | 13.0 | 0.01 | 0.02 | 0.02 | 64 | 1007.4 |
| 20260831041527 | 66 | 250 | 3.0 | 10.0 | 0.00 | 0.01 | 0.01 | 56 | 1007.2 |
| 20260831040042 | 66 | 165 | 1.0 | 5.0 | 0.00 | 0.01 | 0.01 | 62 | 1006.9 |
| 20260831034522 | 65 | 202 | 0.0 | 2.0 | 0.00 | 0.01 | 0.01 | 63 | 1006.3 |
| 20260831033024 | 64 | 196 | 0.0 | 2.0 | 0.00 | 0.01 | 0.01 | 70 | 1006.1 |
| 20260831031515 | 64 | 286 | 1.0 | 4.0 | 0.00 | 0.01 | 0.01 | 73 | 1006.8 |
| 20260831030030 | 64 | 172 | 1.0 | 3.0 | 0.00 | 0.01 | 0.01 | 73 | 1006.8 |
| 20260831024527 | 64 | 219 | 0.0 | 4.0 | 0.00 | 0.01 | 0.01 | 72 | 1006.7 |
| 20260831023033 | 64 | 213 | 0.0 | 2.0 | 0.00 | 0.01 | 0.01 | 70 | 1006.3 |
| 20260831021537 | 64 | 211 | 0.0 | 0.0 | 0.00 | 0.01 | 0.01 | 70 | 1005.6 |
| 20260831020032 | 63 | 216 | 0.0 | 1.0 | 0.00 | 0.01 | 0.01 | 72 | 1005.4 |
| 20260831014524 | 63 | 224 | 0.0 | 1.0 | 0.00 | 0.01 | 0.01 | 73 | 1005.1 |
| 20260831013023 | 64 | 200 | 0.0 | 1.0 | 0.00 | 0.01 | 0.01 | 74 | 1005.0 |
| 20260831011517 | 64 | 199 | 0.0 | 2.0 | 0.00 | 0.01 | 0.01 | 72 | 1005.0 |
| 20260831010049 | 65 | 180 | 0.0 | 3.0 | 0.00 | 0.01 | 0.01 | 69 | 1005.0 |
| 20260831004526 | 65 | 198 | 1.0 | 4.0 | 0.00 | 0.01 | 0.01 | 70 | 1004.9 |
| 20260831003021 | 65 | 215 | 1.0 | 4.0 | 0.00 | 0.01 | 0.01 | 68 | 1005.0 |
| 20260831001528 | 66 | 77 | 1.0 | 3.0 | 0.00 | 0.01 | 0.01 | 67 | 1005.0 |
| 20260830234523 | 65 | 198 | 1.0 | 5.0 | 0.00 | 0.02 | 0.01 | 74 | 1005.7 |
| 20260830233018 | 66 | 206 | 0.0 | 3.0 | 0.00 | 0.02 | 0.01 | 72 | 1005.7 |
| 20260830231526 | 66 | 94 | 1.0 | 4.0 | 0.00 | 0.02 | 0.01 | 73 | 1005.4 |
| 20260830230030 | 65 | 176 | 0.0 | 3.0 | 0.00 | 0.02 | 0.01 | 73 | 1005.5 |
| 20260830224531 | 64 | 175 | 1.0 | 3.0 | 0.01 | 0.14 | 0.01 | 74 | 1005.9 |
| 20260830223025 | 64 | 329 | 0.0 | 2.0 | 0.01 | 0.14 | 0.01 | 78 | 1005.8 |
| 20260830221555 | 63 | 283 | 1.0 | 7.0 | 0.01 | 0.14 | 0.01 | 79 | 1005.6 |
| 20260830220030 | 63 | 34 | 1.0 | 5.0 | 0.01 | 0.14 | 0.01 | 79 | 1005.0 |
| 20260830214522 | 67 | 273 | 4.0 | 13.0 | 0.00 | 0.13 | 0.00 | 54 | 1005.9 |
| 20260830213015 | 71 | 330 | 5.0 | 14.0 | 0.00 | 0.13 | 0.00 | 49 | 1004.3 |
| 20260830211521 | 79 | 45 | 3.0 | 13.0 | 0.00 | 0.13 | 0.00 | 42 | 1004.0 |
| 20260830210030 | 81 | 43 | 1.0 | 3.0 | 0.00 | 0.13 | 0.00 | 39 | 1003.3 |
| 20260830204531 | 81 | 333 | 0.0 | 3.0 | 0.00 | 0.13 | 0.00 | 41 | 1003.0 |
| 20260830203020 | 79 | 171 | 1.0 | 3.0 | 0.00 | 0.13 | 0.00 | 38 | 1003.0 |
| 20260830201514 | 80 | 169 | 0.0 | 4.0 | 0.00 | 0.13 | 0.00 | 37 | 1003.2 |
| 20260830200030 | 79 | 54 | 0.0 | 2.0 | 0.00 | 0.13 | 0.00 | 38 | 1003.0 |
| 20260830194525 | 79 | 173 | 0.0 | 4.0 | 0.00 | 0.13 | 0.00 | 39 | 1002.8 |
| 20260830193020 | 79 | 17 | 0.0 | 4.0 | 0.00 | 0.13 | 0.00 | 40 | 1003.0 |
| 20260830191517 | 79 | 190 | 1.0 | 4.0 | 0.00 | 0.13 | 0.00 | 37 | 1003.1 |
| 20260830190034 | 79 | 128 | 1.0 | 5.0 | 0.00 | 0.13 | 0.00 | 38 | 1003.1 |
| 20260830184525 | 77 | 197 | 1.0 | 4.0 | 0.00 | 0.13 | 0.00 | 38 | 1003.2 |
| 20260830183022 | 77 | 163 | 1.0 | 4.0 | 0.00 | 0.13 | 0.00 | 41 | 1003.3 |
| 20260830181620 | 77 | 173 | 2.0 | 4.0 | 0.00 | 0.13 | 0.00 | 43 | 1003.6 |
| 20260830180050 | 75 | 180 | 1.0 | 4.0 | 0.00 | 0.13 | 0.00 | 42 | 1003.7 |
| 20260830174522 | 74 | 200 | 1.0 | 3.0 | 0.00 | 0.13 | 0.00 | 46 | 1004.0 |
| 20260830173052 | 75 | 100 | 1.0 | 3.0 | 0.00 | 0.13 | 0.00 | 47 | 1004.1 |
| 20260830171524 | 74 | 305 | 1.0 | 3.0 | 0.00 | 0.13 | 0.00 | 52 | 1004.2 |
| 20260830170022 | 73 | 54 | 0.0 | 3.0 | 0.00 | 0.13 | 0.00 | 54 | 1004.1 |
| 20260830164558 | 72 | 47 | 0.0 | 3.0 | 0.00 | 0.13 | 0.00 | 55 | 1004.2 |
| 20260830163028 | 71 | 290 | 0.0 | 2.0 | 0.00 | 0.13 | 0.00 | 58 | 1004.4 |
| 20260830161527 | 71 | 292 | 0.0 | 4.0 | 0.00 | 0.13 | 0.00 | 57 | 1004.1 |
| 20260830160018 | 69 | 227 | 0.0 | 1.0 | 0.00 | 0.13 | 0.00 | 62 | 1004.2 |
| 20260830154514 | 68 | 190 | 0.0 | 2.0 | 0.00 | 0.13 | 0.00 | 58 | 1004.0 |
| 20260830153033 | 67 | 259 | 0.0 | 2.0 | 0.00 | 0.13 | 0.00 | 64 | 1003.7 |
| 20260830151524 | 66 | 210 | 0.0 | 1.0 | 0.00 | 0.13 | 0.00 | 59 | 1003.7 |
| 20260830150022 | 66 | 174 | 0.0 | 2.0 | 0.00 | 0.13 | 0.00 | 62 | 1003.7 |
| 20260830144518 | 66 | 275 | 0.0 | 1.0 | 0.00 | 0.13 | 0.00 | 59 | 1003.9 |
| 20260830143032 | 64 | 248 | 0.0 | 1.0 | 0.00 | 0.13 | 0.00 | 67 | 1003.7 |
| 20260830141530 | 63 | 279 | 0.0 | 2.0 | 0.00 | 0.13 | 0.00 | 68 | 1003.9 |
| 20260830140027 | 63 | 267 | 1.0 | 3.0 | 0.00 | 0.13 | 0.00 | 67 | 1003.8 |
| 20260830134536 | 62 | 31 | 0.0 | 3.0 | 0.00 | 0.13 | 0.00 | 67 | 1003.6 |
| 20260830133026 | 63 | 241 | 0.0 | 2.0 | 0.00 | 0.13 | 0.00 | 61 | 1003.5 |
| 20260830131536 | 62 | 230 | 0.0 | 3.0 | 0.00 | 0.13 | 0.00 | 62 | 1003.2 |
| 20260830130027 | 63 | 185 | 0.0 | 2.0 | 0.00 | 0.13 | 0.00 | 61 | 1003.0 |
| 20260830124526 | 63 | 195 | 0.0 | 2.0 | 0.00 | 0.13 | 0.00 | 61 | 1002.8 |
| 20260830123020 | 63 | 169 | 1.0 | 2.0 | 0.00 | 0.13 | 0.00 | 60 | 1002.7 |
| 20260830121514 | 63 | 224 | 0.0 | 4.0 | 0.00 | 0.13 | 0.00 | 60 | 1002.5 |
| 20260830120028 | 63 | 190 | 0.0 | 3.0 | 0.00 | 0.13 | 0.00 | 61 | 1002.4 |
| 20260830114522 | 60 | 180 | 0.0 | 1.0 | 0.00 | 0.13 | 0.00 | 67 | 1002.1 |
| 20260830113024 | 60 | 180 | 0.0 | 0.0 | 0.00 | 0.13 | 0.00 | 68 | 1002.1 |
| 20260830111559 | 60 | 180 | 0.0 | 1.0 | 0.00 | 0.13 | 0.00 | 68 | 1002.2 |
| 20260830110026 | 62 | 180 | 0.0 | 1.0 | 0.00 | 0.13 | 0.00 | 61 | 1002.2 |
| 20260830104523 | 64 | 180 | 0.0 | 4.0 | 0.00 | 0.13 | 0.00 | 59 | 1002.1 |
| 20260830103018 | 64 | 206 | 0.0 | 4.0 | 0.00 | 0.13 | 0.00 | 58 | 1002.0 |
| 20260830101517 | 66 | 196 | 3.0 | 8.0 | 0.00 | 0.13 | 0.00 | 55 | 1002.1 |
| 20260830100030 | 65 | 213 | 3.0 | 6.0 | 0.00 | 0.13 | 0.00 | 56 | 1002.2 |
| 20260830094528 | 65 | 234 | 1.0 | 5.0 | 0.00 | 0.13 | 0.00 | 57 | 1002.2 |
| 20260830093024 | 63 | 185 | 1.0 | 4.0 | 0.00 | 0.13 | 0.00 | 61 | 1002.3 |
| 20260830091522 | 63 | 190 | 1.0 | 2.0 | 0.00 | 0.13 | 0.00 | 61 | 1002.2 |
| 20260830090015 | 63 | 171 | 0.0 | 2.0 | 0.00 | 0.13 | 0.00 | 61 | 1002.3 |
| 20260830084529 | 63 | 172 | 0.0 | 2.0 | 0.00 | 0.13 | 0.00 | 63 | 1002.3 |
| 20260830083027 | 62 | 180 | 0.0 | 1.0 | 0.00 | 0.13 | 0.00 | 63 | 1002.3 |
| 20260830081527 | 62 | 200 | 0.0 | 3.0 | 0.00 | 0.13 | 0.00 | 63 | 1002.2 |
| 20260830080020 | 62 | 190 | 0.0 | 2.0 | 0.00 | 0.13 | 0.00 | 63 | 1002.3 |
| 20260830074548 | 63 | 185 | 0.0 | 3.0 | 0.00 | 0.13 | 0.00 | 61 | 1002.3 |
| 20260830073032 | 63 | 180 | 0.0 | 2.0 | 0.00 | 0.13 | 0.00 | 61 | 1002.4 |
| 20260830071524 | 63 | 169 | 0.0 | 1.0 | 0.00 | 0.13 | 0.00 | 63 | 1002.7 |
| 20260830070018 | 63 | 190 | 0.0 | 3.0 | 0.00 | 0.13 | 0.00 | 63 | 1002.9 |
| 20260830064514 | 63 | 175 | 0.0 | 3.0 | 0.00 | 0.13 | 0.00 | 64 | 1003.1 |
| 20260830063029 | 63 | 217 | 1.0 | 4.0 | 0.00 | 0.13 | 0.00 | 64 | 1003.2 |
| 20260830061527 | 62 | 164 | 0.0 | 1.0 | 0.00 | 0.13 | 0.00 | 66 | 1003.5 |
| 20260830060019 | 62 | 149 | 0.0 | 2.0 | 0.00 | 0.13 | 0.00 | 67 | 1003.6 |
| 20260830054522 | 62 | 180 | 0.0 | 3.0 | 0.00 | 0.13 | 0.13 | 67 | 1003.8 |
| 20260830053033 | 62 | 190 | 0.0 | 2.0 | 0.00 | 0.13 | 0.13 | 69 | 1003.9 |
| 20260830051539 | 62 | 158 | 0.0 | 2.0 | 0.00 | 0.13 | 0.13 | 68 | 1004.0 |
| 20260830050020 | 61 | 98 | 0.0 | 1.0 | 0.00 | 0.13 | 0.13 | 72 | 1003.8 |
| 20260830044516 | 61 | 97 | 0.0 | 0.0 | 0.00 | 0.13 | 0.13 | 71 | 1003.8 |